Location: Los Gatos B&B
(42.6926°N, 77.0646°W)
Time: 13:56:18
(UTC-05:00)

SL-16 R/B - Visible Passes

Search period start: 16 December 2017 00:00
Search period end: 26 December 2017 00:00
Orbit: 839 x 850 km, 71.0° (Epoch: 15 December)

Date Brightness Start Highest point End Pass type
(mag) Time Alt. Az. Time Alt. Az. Time Alt. Az.
18 Dec 4.3 06:58:21 10° N 07:02:35 21° NE 07:06:47 10° E visible
19 Dec 4.3 06:44:19 10° N 06:48:28 20° NE 06:52:36 10° E visible
20 Dec 4.4 06:30:17 10° N 06:34:21 20° NE 06:38:25 10° E visible
21 Dec 4.4 06:16:15 10° N 06:20:15 19° NE 06:24:14 10° E visible
22 Dec 4.4 06:02:13 10° N 06:06:09 19° NE 06:10:03 10° E visible
23 Dec 4.5 05:48:11 10° N 05:52:02 18° NE 05:55:51 10° E visible
24 Dec 4.5 05:34:09 10° N 05:37:55 18° NE 05:41:39 10° E visible
25 Dec 4.6 05:20:08 10° N 05:23:48 17° NE 05:27:27 10° E visible
